Powrót do katalogu

COSMOS 2497

AktywnyMilitariaPO
NORAD 39762·PAYLOAD·🇷🇺 Russia

Wystrzelony May 23, 2014 z Plesetsk Cosmodrome

Loading…

Następne Przeloty (najbliższe 24 godziny)

TLE

ŚwieżeSource: Space-Track

Epoka: Sep 14, 2026, 21:54 UTC

1 39762U 14028B   26257.91264615  .00000000  00000-0 -69315-4 0  9997
2 39762  82.4480  54.2328 0019852 237.7378 122.1778 12.42897351558661

Śledź COSMOS 2497 w czasie rzeczywistym z AllMySat

Download on the App Store